Weather in Eleckij

Russia / Komi Republic     67°02′41″N   64°12′53″E
temp.,
°C
wind,
m/s
gust,
m/s
humid.,
%
clouds,
%
prec.,
mm/h
press.,
hPa
HPBL,
m
27 october, wed
wed2700:00−8nw61093100 0.5 1006527
03:00−9nw599484 0.8 1008303
06:00−13w349771 0.1 100967
09:00−13sw239792 0.3 101152
12:00−13s229692 0.1 101240
15:00−14sse229799 0.1 101235
18:00−14se229690 0.1 101131
21:00−12ese4689100 0.1 100877
28 october, thu
thu2800:00−10ese51086100 0.0 1005208
03:00−9ese61286100 0.0 1002343
06:00−9ese71387100 0.1 999420
09:00−8ese61284100 0.3 997532
12:00−8e5891100 0.2 996403
15:00−8ene4695100 0.9 995264
18:00−8nne3596100 1.2 995222
21:00−9nnw3696100 2.1 995310
29 october, fri
fri2900:00−9nw4796100 0.8 997344
03:00−9nnw61194100 1.6 998633
06:00−8n101589100 0.6 1000894
09:00−8nnw101586100 0.7 1003893
12:00−8nnw91585100 0.1 10061063
15:00−9nnw7139099 0.2 1009712
18:00−14wnw489754 0.1 1010135
21:00−16w349744 0.1 101173
30 october, sat
sat3000:00−17sw339898 0.1 101239
03:00−16sw3598100 0.1 101284
06:00−17sw2498100 0.1 101253
09:00−16ssw229799 0.3 101251
12:00−16se119883 0.1 101210
15:00−20ese1110063 0.1 10139
18:00−21se1110080 0.0 10159
21:00−19se1110093 0.1 10169
31 october, sun
sun3100:00−19sse1110097 0.1 10189
03:00−19sse119997 0.1 101911
06:00−19sse1110083 0.1 102010
09:00−16ese119790 0.1 102027
12:00−16e229668 0.0 101919
15:00−16ese339216 0.0 101724
18:00−14ese478530 0.0 101574
21:00−13ese6138267 0.0 1012166